Time,TemperatureF,DewpointF,PressureIn,WindDirection,WindDirectionDegrees,WindSpeedMPH,WindSpeedGustMPH,Humidity,HourlyPrecipIn,Conditions,Clouds,dailyrainin,SoftwareType,DateUTC
2013-02-21 00:00:00,28.7,11.0,0.00,SE,135,0.0,0.0,47,0.00,,,0.00,WUHU216HW,2013-02-21 05:00:00,
2013-02-21 00:05:00,28.5,10.8,0.00,SE,135,0.0,0.0,47,0.00,,,0.00,WUHU216HW,2013-02-21 05:05:00,
2013-02-21 00:10:00,28.5,10.8,0.00,SE,135,0.0,0.0,47,0.00,,,0.00,WUHU216HW,2013-02-21 05:10:00,
2013-02-21 00:15:00,28.5,10.8,0.00,SE,135,0.0,0.0,47,0.00,,,0.00,WUHU216HW,2013-02-21 05:15:00,
2013-02-21 00:20:00,28.5,10.8,0.00,SE,135,0.0,0.0,47,0.00,,,0.00,WUHU216HW,2013-02-21 05:20:00,
2013-02-21 00:25:00,28.5,10.8,0.00,SE,135,0.0,0.0,47,0.00,,,0.00,WUHU216HW,2013-02-21 05:25:00,
2013-02-21 00:30:00,28.5,11.3,0.00,SE,135,0.0,0.0,48,0.00,,,0.00,WUHU216HW,2013-02-21 05:30:00,
2013-02-21 00:35:00,28.5,11.3,0.00,SE,135,0.0,0.0,48,0.00,,,0.00,WUHU216HW,2013-02-21 05:35:00,
2013-02-21 00:40:00,28.5,11.3,0.00,SE,135,0.0,0.0,48,0.00,,,0.00,WUHU216HW,2013-02-21 05:40:00,
2013-02-21 00:45:00,28.2,11.0,0.00,SE,135,0.0,0.0,48,0.00,,,0.00,WUHU216HW,2013-02-21 05:45:00,
2013-02-21 00:50:00,28.0,10.8,0.00,SE,135,0.0,0.0,48,0.00,,,0.00,WUHU216HW,2013-02-21 05:50:00,
2013-02-21 00:56:00,28.0,10.8,0.00,SE,135,0.0,0.0,48,0.00,,,0.00,WUHU216HW,2013-02-21 05:56:00,
2013-02-21 01:01:00,28.0,10.8,0.00,SE,135,0.0,0.0,48,0.00,,,0.00,WUHU216HW,2013-02-21 06:01:00,
2013-02-21 01:06:00,27.8,11.1,0.00,SE,135,0.0,0.0,49,0.00,,,0.00,WUHU216HW,2013-02-21 06:06:00,
2013-02-21 01:11:00,28.0,11.3,0.00,SE,135,0.0,0.0,49,0.00,,,0.00,WUHU216HW,2013-02-21 06:11:00,
2013-02-21 01:16:00,27.8,11.1,0.00,SE,135,0.0,0.0,49,0.00,,,0.00,WUHU216HW,2013-02-21 06:16:00,
2013-02-21 01:21:00,27.6,10.9,0.00,SE,135,0.0,0.0,49,0.00,,,0.00,WUHU216HW,2013-02-21 06:21:00,
2013-02-21 01:26:00,27.5,10.7,0.00,SE,135,0.0,0.0,49,0.00,,,0.00,WUHU216HW,2013-02-21 06:26:00,
2013-02-21 01:31:00,27.5,10.7,0.00,SE,135,0.0,0.0,49,0.00,,,0.00,WUHU216HW,2013-02-21 06:31:00,
2013-02-21 01:36:00,27.3,10.6,0.00,SE,135,0.0,0.0,49,0.00,,,0.00,WUHU216HW,2013-02-21 06:36:00,
2013-02-21 01:41:00,27.1,10.9,0.00,SE,135,0.0,0.0,50,0.00,,,0.00,WUHU216HW,2013-02-21 06:41:00,
2013-02-21 01:46:00,27.1,10.9,0.00,SE,135,0.0,0.0,50,0.00,,,0.00,WUHU216HW,2013-02-21 06:46:00,
2013-02-21 01:51:00,27.1,10.9,0.00,SE,135,0.0,0.0,50,0.00,,,0.00,WUHU216HW,2013-02-21 06:51:00,
2013-02-21 01:56:00,27.1,10.9,0.00,SE,135,0.0,0.0,50,0.00,,,0.00,WUHU216HW,2013-02-21 06:56:00,
2013-02-21 02:01:00,26.9,10.7,0.00,SE,135,0.0,0.0,50,0.00,,,0.00,WUHU216HW,2013-02-21 07:01:00,
2013-02-21 02:05:00,26.9,10.7,0.00,SE,135,0.0,0.0,50,0.00,,,0.00,WUHU216HW,2013-02-21 07:05:00,
2013-02-21 02:10:00,26.7,10.9,0.00,SE,135,0.0,0.0,51,0.00,,,0.00,WUHU216HW,2013-02-21 07:10:00,
2013-02-21 02:15:00,26.7,10.9,0.00,SE,135,0.0,0.0,51,0.00,,,0.00,WUHU216HW,2013-02-21 07:15:00,
2013-02-21 02:20:00,26.7,10.9,0.00,SE,135,0.0,0.0,51,0.00,,,0.00,WUHU216HW,2013-02-21 07:20:00,
2013-02-21 02:25:00,26.7,10.9,0.00,SE,135,0.0,0.0,51,0.00,,,0.00,WUHU216HW,2013-02-21 07:25:00,
2013-02-21 02:30:00,26.7,11.4,0.00,SE,135,0.0,0.0,52,0.00,,,0.00,WUHU216HW,2013-02-21 07:30:00,
2013-02-21 02:35:00,26.7,11.4,0.00,SE,135,0.0,0.0,52,0.00,,,0.00,WUHU216HW,2013-02-21 07:35:00,
2013-02-21 02:40:00,26.6,11.2,0.00,SE,135,0.0,0.0,52,0.00,,,0.00,WUHU216HW,2013-02-21 07:40:00,
2013-02-21 02:45:00,26.6,11.2,0.00,SE,135,0.0,0.0,52,0.00,,,0.00,WUHU216HW,2013-02-21 07:45:00,
2013-02-21 02:50:00,26.6,11.2,0.00,SE,135,0.0,0.0,52,0.00,,,0.00,WUHU216HW,2013-02-21 07:50:00,
2013-02-21 02:55:00,26.4,11.0,0.00,SE,135,0.0,0.0,52,0.00,,,0.00,WUHU216HW,2013-02-21 07:55:00,
2013-02-21 03:00:00,26.4,11.0,0.00,SE,135,0.0,0.0,52,0.00,,,0.00,WUHU216HW,2013-02-21 08:00:00,
2013-02-21 03:05:00,26.2,10.9,0.00,SE,135,0.0,0.0,52,0.00,,,0.00,WUHU216HW,2013-02-21 08:05:00,
2013-02-21 03:10:00,26.2,10.9,0.00,SE,135,0.0,0.0,52,0.00,,,0.00,WUHU216HW,2013-02-21 08:10:00,
2013-02-21 03:15:00,26.2,10.9,0.00,SE,135,0.0,0.0,52,0.00,,,0.00,WUHU216HW,2013-02-21 08:15:00,
2013-02-21 03:20:00,26.0,11.1,0.00,SE,135,0.0,0.0,53,0.00,,,0.00,WUHU216HW,2013-02-21 08:20:00,
2013-02-21 03:25:00,25.8,10.9,0.00,SE,135,0.0,0.0,53,0.00,,,0.00,WUHU216HW,2013-02-21 08:25:00,
2013-02-21 03:30:00,25.8,10.9,0.00,SE,135,0.0,0.0,53,0.00,,,0.00,WUHU216HW,2013-02-21 08:30:00,
2013-02-21 03:35:00,25.8,10.9,0.00,SE,135,0.0,0.0,53,0.00,,,0.00,WUHU216HW,2013-02-21 08:35:00,
2013-02-21 03:40:00,25.8,10.9,0.00,SE,135,0.0,0.0,53,0.00,,,0.00,WUHU216HW,2013-02-21 08:40:00,
2013-02-21 03:45:00,25.7,10.8,0.00,North,0,0.0,0.0,53,0.00,,,0.00,WUHU216HW,2013-02-21 08:45:00,
2013-02-21 03:50:00,25.7,11.2,0.00,SE,135,0.0,0.0,54,0.00,,,0.00,WUHU216HW,2013-02-21 08:50:00,
2013-02-21 03:55:00,25.7,11.2,0.00,SE,135,0.0,0.0,54,0.00,,,0.00,WUHU216HW,2013-02-21 08:55:00,
2013-02-21 04:00:00,25.7,11.2,0.00,SE,135,0.0,0.0,54,0.00,,,0.00,WUHU216HW,2013-02-21 09:00:00,
2013-02-21 04:05:00,25.7,11.2,0.00,SE,135,0.0,0.0,54,0.00,,,0.00,WUHU216HW,2013-02-21 09:05:00,
2013-02-21 04:10:00,25.5,11.0,0.00,SE,135,0.0,0.0,54,0.00,,,0.00,WUHU216HW,2013-02-21 09:10:00,
2013-02-21 04:15:00,25.5,11.0,0.00,SE,135,0.0,0.0,54,0.00,,,0.00,WUHU216HW,2013-02-21 09:15:00,
2013-02-21 04:20:00,25.5,11.0,0.00,SE,135,0.0,0.0,54,0.00,,,0.00,WUHU216HW,2013-02-21 09:20:00,
2013-02-21 04:25:00,25.5,11.0,0.00,SE,135,0.0,0.0,54,0.00,,,0.00,WUHU216HW,2013-02-21 09:25:00,
2013-02-21 04:30:00,25.3,11.3,0.00,SE,135,0.0,0.0,55,0.00,,,0.00,WUHU216HW,2013-02-21 09:30:00,
2013-02-21 04:35:00,25.3,11.3,0.00,SE,135,0.0,0.0,55,0.00,,,0.00,WUHU216HW,2013-02-21 09:35:00,
2013-02-21 04:40:00,25.3,11.3,0.00,SE,135,0.0,0.0,55,0.00,,,0.00,WUHU216HW,2013-02-21 09:40:00,
2013-02-21 04:45:00,25.3,11.3,0.00,SE,135,0.0,0.0,55,0.00,,,0.00,WUHU216HW,2013-02-21 09:45:00,
2013-02-21 04:50:00,25.3,11.3,0.00,SE,135,0.0,0.0,55,0.00,,,0.00,WUHU216HW,2013-02-21 09:50:00,
2013-02-21 04:55:00,25.1,11.1,0.00,SE,135,0.0,0.0,55,0.00,,,0.00,WUHU216HW,2013-02-21 09:55:00,
2013-02-21 05:00:00,24.9,11.4,0.00,SE,135,0.0,0.0,56,0.00,,,0.00,WUHU216HW,2013-02-21 10:00:00,
2013-02-21 05:05:00,24.9,11.4,0.00,SE,135,0.0,0.0,56,0.00,,,0.00,WUHU216HW,2013-02-21 10:05:00,
2013-02-21 05:10:00,24.8,11.2,0.00,SE,135,0.0,0.0,56,0.00,,,0.00,WUHU216HW,2013-02-21 10:10:00,
2013-02-21 05:15:00,24.6,11.0,0.00,SE,135,0.0,0.0,56,0.00,,,0.00,WUHU216HW,2013-02-21 10:15:00,
2013-02-21 05:20:00,24.6,11.0,0.00,SE,135,0.0,0.0,56,0.00,,,0.00,WUHU216HW,2013-02-21 10:20:00,
2013-02-21 05:25:00,24.6,11.0,0.00,SE,135,0.0,0.0,56,0.00,,,0.00,WUHU216HW,2013-02-21 10:25:00,
2013-02-21 05:30:00,24.6,11.0,0.00,SE,135,0.0,0.0,56,0.00,,,0.00,WUHU216HW,2013-02-21 10:30:00,
2013-02-21 05:35:00,24.6,11.4,0.00,SE,135,0.0,0.0,57,0.00,,,0.00,WUHU216HW,2013-02-21 10:35:00,
2013-02-21 05:40:00,24.6,11.4,0.00,SE,135,0.0,0.0,57,0.00,,,0.00,WUHU216HW,2013-02-21 10:40:00,
2013-02-21 05:45:00,24.6,11.4,0.00,SE,135,0.0,0.0,57,0.00,,,0.00,WUHU216HW,2013-02-21 10:45:00,
2013-02-21 05:50:00,24.6,11.4,0.00,SE,135,0.0,0.0,57,0.00,,,0.00,WUHU216HW,2013-02-21 10:50:00,
2013-02-21 05:55:00,24.4,11.3,0.00,SE,135,0.0,0.0,57,0.00,,,0.00,WUHU216HW,2013-02-21 10:55:00,
2013-02-21 06:00:00,24.4,11.3,0.00,SE,135,0.0,0.0,57,0.00,,,0.00,WUHU216HW,2013-02-21 11:00:00,
2013-02-21 06:05:00,24.4,11.3,0.00,SE,135,0.0,0.0,57,0.00,,,0.00,WUHU216HW,2013-02-21 11:05:00,
2013-02-21 06:10:00,24.0,11.3,0.00,SE,135,0.0,0.0,58,0.00,,,0.00,WUHU216HW,2013-02-21 11:10:00,
2013-02-21 06:15:00,24.0,11.3,0.00,SE,135,0.0,0.0,58,0.00,,,0.00,WUHU216HW,2013-02-21 11:15:00,
2013-02-21 06:20:00,24.0,11.3,0.00,SE,135,0.0,0.0,58,0.00,,,0.00,WUHU216HW,2013-02-21 11:20:00,
2013-02-21 06:25:00,24.0,11.3,0.00,SE,135,0.0,0.0,58,0.00,,,0.00,WUHU216HW,2013-02-21 11:25:00,
2013-02-21 06:30:00,23.9,11.2,0.00,SE,135,0.0,0.0,58,0.00,,,0.00,WUHU216HW,2013-02-21 11:30:00,
2013-02-21 06:35:00,23.7,11.4,0.00,SE,135,0.0,0.0,59,0.00,,,0.00,WUHU216HW,2013-02-21 11:35:00,
2013-02-21 06:40:00,23.5,11.2,0.00,SE,135,0.0,0.0,59,0.00,,,0.00,WUHU216HW,2013-02-21 11:40:00,
2013-02-21 06:45:00,23.5,11.2,0.00,SE,135,0.0,0.0,59,0.00,,,0.00,WUHU216HW,2013-02-21 11:45:00,
2013-02-21 06:50:00,23.5,11.2,0.00,SE,135,0.0,0.0,59,0.00,,,0.00,WUHU216HW,2013-02-21 11:50:00,
2013-02-21 06:55:00,23.5,11.2,0.00,SE,135,0.0,0.0,59,0.00,,,0.00,WUHU216HW,2013-02-21 11:55:00,
2013-02-21 07:00:00,23.5,11.6,0.00,SE,135,0.0,0.0,60,0.00,,,0.00,WUHU216HW,2013-02-21 12:00:00,
2013-02-21 07:05:00,23.5,11.6,0.00,SE,135,0.0,0.0,60,0.00,,,0.00,WUHU216HW,2013-02-21 12:05:00,
2013-02-21 07:10:00,23.5,11.6,0.00,SE,135,0.0,0.0,60,0.00,,,0.00,WUHU216HW,2013-02-21 12:10:00,
2013-02-21 07:15:00,23.5,11.6,0.00,SE,135,0.0,0.0,60,0.00,,,0.00,WUHU216HW,2013-02-21 12:15:00,
2013-02-21 07:20:00,23.3,11.4,0.00,SE,135,0.0,0.0,60,0.00,,,0.00,WUHU216HW,2013-02-21 12:20:00,
2013-02-21 07:25:00,23.1,11.3,0.00,SE,135,0.0,0.0,60,0.00,,,0.00,WUHU216HW,2013-02-21 12:25:00,
2013-02-21 07:30:00,23.0,11.4,0.00,SE,135,0.0,0.0,61,0.00,,,0.00,WUHU216HW,2013-02-21 12:30:00,
2013-02-21 07:35:00,22.8,11.3,0.00,SE,135,0.0,0.0,61,0.00,,,0.00,WUHU216HW,2013-02-21 12:35:00,
2013-02-21 07:40:00,23.0,11.4,0.00,SE,135,0.0,0.0,61,0.00,,,0.00,WUHU216HW,2013-02-21 12:40:00,
2013-02-21 07:45:00,23.0,11.8,0.00,SE,135,0.0,0.0,62,0.00,,,0.00,WUHU216HW,2013-02-21 12:45:00,
2013-02-21 07:50:00,23.1,12.0,0.00,SE,135,0.0,0.0,62,0.00,,,0.00,WUHU216HW,2013-02-21 12:50:00,
2013-02-21 07:55:00,23.3,12.1,0.00,SE,135,0.0,0.0,62,0.00,,,0.00,WUHU216HW,2013-02-21 12:55:00,
2013-02-21 08:00:00,23.5,12.3,0.00,SE,135,0.0,0.0,62,0.00,,,0.00,WUHU216HW,2013-02-21 13:00:00,
2013-02-21 08:05:00,23.5,12.3,0.00,SE,135,0.0,0.0,62,0.00,,,0.00,WUHU216HW,2013-02-21 13:05:00,
2013-02-21 08:10:00,23.7,12.5,0.00,SE,135,0.0,0.0,62,0.00,,,0.00,WUHU216HW,2013-02-21 13:10:00,
2013-02-21 08:15:00,24.0,12.8,0.00,SE,135,0.0,0.0,62,0.00,,,0.00,WUHU216HW,2013-02-21 13:15:00,
2013-02-21 08:20:00,24.4,13.2,0.00,SE,135,0.0,0.0,62,0.00,,,0.00,WUHU216HW,2013-02-21 13:20:00,
2013-02-21 08:25:00,24.6,13.7,0.00,SE,135,0.0,0.0,63,0.00,,,0.00,WUHU216HW,2013-02-21 13:25:00,
2013-02-21 08:30:00,24.9,14.1,0.00,SE,135,0.0,0.0,63,0.00,,,0.00,WUHU216HW,2013-02-21 13:30:00,
2013-02-21 08:35:00,25.5,14.2,0.00,SE,135,0.0,0.0,62,0.00,,,0.00,WUHU216HW,2013-02-21 13:35:00,
2013-02-21 08:40:00,26.0,14.7,0.00,SE,135,0.0,0.0,62,0.00,,,0.00,WUHU216HW,2013-02-21 13:40:00,
2013-02-21 08:45:00,26.4,15.0,0.00,SE,135,0.0,0.0,62,0.00,,,0.00,WUHU216HW,2013-02-21 13:45:00,
2013-02-21 08:50:00,26.7,15.0,0.00,SE,135,0.0,0.0,61,0.00,,,0.00,WUHU216HW,2013-02-21 13:50:00,
2013-02-21 08:55:00,27.1,15.4,0.00,SE,135,0.0,0.0,61,0.00,,,0.00,WUHU216HW,2013-02-21 13:55:00,
2013-02-21 09:00:00,27.5,15.8,0.00,SE,135,0.0,0.0,61,0.00,,,0.00,WUHU216HW,2013-02-21 14:00:00,
2013-02-21 09:05:00,27.6,15.9,0.00,SE,135,0.0,0.0,61,0.00,,,0.00,WUHU216HW,2013-02-21 14:05:00,
2013-02-21 09:10:00,28.2,16.1,0.00,SE,135,0.0,0.0,60,0.00,,,0.00,WUHU216HW,2013-02-21 14:10:00,
2013-02-21 09:15:00,28.5,16.6,0.00,SE,135,0.0,0.0,60,0.00,,,0.00,WUHU216HW,2013-02-21 14:15:00,
2013-02-21 09:20:00,28.9,16.4,0.00,SE,135,0.0,0.0,59,0.00,,,0.00,WUHU216HW,2013-02-21 14:20:00,
2013-02-21 09:25:00,29.3,16.7,0.00,SE,135,0.0,0.0,59,0.00,,,0.00,WUHU216HW,2013-02-21 14:25:00,
2013-02-21 09:30:00,29.6,17.0,0.00,SE,135,0.0,0.0,59,0.00,,,0.00,WUHU216HW,2013-02-21 14:30:00,
2013-02-21 09:35:00,30.0,16.9,0.00,SE,135,0.0,0.0,58,0.00,,,0.00,WUHU216HW,2013-02-21 14:35:00,
2013-02-21 09:40:00,30.2,17.1,0.00,SE,135,0.0,0.0,58,0.00,,,0.00,WUHU216HW,2013-02-21 14:40:00,
2013-02-21 09:45:00,30.7,17.6,0.00,SE,135,0.0,0.0,58,0.00,,,0.00,WUHU216HW,2013-02-21 14:45:00,
2013-02-21 09:50:00,30.9,17.4,0.00,SE,135,0.0,1.3,57,0.00,,,0.00,WUHU216HW,2013-02-21 14:50:00,
2013-02-21 09:55:00,31.2,17.7,0.00,SE,135,0.0,1.3,57,0.00,,,0.00,WUHU216HW,2013-02-21 14:55:00,
2013-02-21 10:00:00,31.6,18.1,0.00,SE,135,0.0,0.0,57,0.00,,,0.00,WUHU216HW,2013-02-21 15:00:00,
2013-02-21 10:05:00,31.8,18.2,0.00,SE,135,1.1,3.1,57,0.00,,,0.00,WUHU216HW,2013-02-21 15:05:00,
2013-02-21 10:10:00,32.3,18.1,0.00,SE,135,0.0,3.1,56,0.00,,,0.00,WUHU216HW,2013-02-21 15:10:00,
2013-02-21 10:15:00,32.7,18.6,0.00,SE,135,0.0,0.0,56,0.00,,,0.00,WUHU216HW,2013-02-21 15:15:00,
2013-02-21 10:20:00,33.0,18.5,0.00,SE,135,0.0,0.0,55,0.00,,,0.00,WUHU216HW,2013-02-21 15:20:00,
2013-02-21 10:25:00,33.6,19.0,0.00,SE,135,0.0,0.6,55,0.00,,,0.00,WUHU216HW,2013-02-21 15:25:00,
2013-02-21 10:30:00,34.1,19.7,0.00,ENE,68,0.0,0.6,55,0.00,,,0.00,WUHU216HW,2013-02-21 15:30:00,
2013-02-21 10:35:00,34.7,19.6,0.00,North,0,0.0,0.0,54,0.00,,,0.00,WUHU216HW,2013-02-21 15:35:00,
2013-02-21 10:40:00,35.2,19.7,0.00,SE,135,3.5,3.5,53,0.00,,,0.00,WUHU216HW,2013-02-21 15:40:00,
2013-02-21 10:45:00,35.7,19.6,0.00,SE,135,0.0,3.5,51,0.00,,,0.00,WUHU216HW,2013-02-21 15:45:00,
2013-02-21 10:50:00,36.8,20.2,0.00,SE,135,0.0,2.9,51,0.00,,,0.00,WUHU216HW,2013-02-21 15:50:00,
2013-02-21 10:55:00,37.7,21.2,0.00,SE,135,0.0,0.0,51,0.00,,,0.00,WUHU216HW,2013-02-21 15:55:00,
2013-02-21 11:00:00,39.0,21.9,0.00,SE,135,0.0,0.0,50,0.00,,,0.00,WUHU216HW,2013-02-21 16:00:00,
2013-02-21 11:05:00,39.3,21.7,0.00,SE,135,0.0,0.0,49,0.00,,,0.00,WUHU216HW,2013-02-21 16:05:00,
2013-02-21 11:10:00,39.5,20.8,0.00,SE,135,0.0,0.0,47,0.00,,,0.00,WUHU216HW,2013-02-21 16:10:00,
2013-02-21 11:15:00,39.9,21.1,0.00,SE,135,0.0,0.0,47,0.00,,,0.00,WUHU216HW,2013-02-21 16:15:00,
2013-02-21 11:20:00,40.1,20.8,0.00,SE,135,0.0,0.0,46,0.00,,,0.00,WUHU216HW,2013-02-21 16:20:00,
2013-02-21 11:25:00,40.6,21.3,0.00,SE,135,0.0,0.0,46,0.00,,,0.00,WUHU216HW,2013-02-21 16:25:00,
2013-02-21 11:30:00,41.1,21.2,0.00,SE,135,0.0,0.0,46,0.00,,,0.00,WUHU216HW,2013-02-21 16:30:00,
2013-02-21 11:35:00,41.5,21.6,0.00,SE,135,0.0,2.2,45,0.00,,,0.00,WUHU216HW,2013-02-21 16:35:00,
2013-02-21 11:40:00,42.0,22.1,0.00,SE,135,0.0,2.2,45,0.00,,,0.00,WUHU216HW,2013-02-21 16:40:00,
2013-02-21 11:45:00,42.6,22.6,0.00,SE,135,0.0,0.0,45,0.00,,,0.00,WUHU216HW,2013-02-21 16:45:00,
2013-02-21 11:50:00,43.3,22.2,0.00,WNW,293,0.0,1.1,43,0.00,,,0.00,WUHU216HW,2013-02-21 16:50:00,
2013-02-21 11:55:00,43.7,22.5,0.00,WNW,293,0.0,1.1,43,0.00,,,0.00,WUHU216HW,2013-02-21 16:55:00,
2013-02-21 12:00:00,44.6,22.8,0.00,SSE,158,0.0,1.3,42,0.00,,,0.00,WUHU216HW,2013-02-21 17:00:00,
2013-02-21 12:05:00,45.1,23.3,0.00,SSE,158,0.0,1.3,42,0.00,,,0.00,WUHU216HW,2013-02-21 17:05:00,
2013-02-21 12:10:00,45.1,22.2,0.00,SE,135,0.0,0.0,40,0.00,,,0.00,WUHU216HW,2013-02-21 17:10:00,
2013-02-21 12:15:00,45.5,22.5,0.00,SSE,158,0.0,0.0,40,0.00,,,0.00,WUHU216HW,2013-02-21 17:15:00,
2013-02-21 12:20:00,46.0,21.7,0.00,SE,135,0.8,1.3,38,0.00,,,0.00,WUHU216HW,2013-02-21 17:20:00,
2013-02-21 12:25:00,46.4,21.3,0.00,SE,135,0.0,1.3,37,0.00,,,0.00,WUHU216HW,2013-02-21 17:25:00,
2013-02-21 12:30:00,46.9,22.5,0.00,SSW,203,0.0,0.0,38,0.00,,,0.00,WUHU216HW,2013-02-21 17:30:00,
2013-02-21 12:35:00,47.3,22.1,0.00,SSW,203,0.0,0.0,37,0.00,,,0.00,WUHU216HW,2013-02-21 17:35:00,
2013-02-21 12:40:00,47.8,22.6,0.00,WSW,248,0.0,0.0,37,0.00,,,0.00,WUHU216HW,2013-02-21 17:40:00,
2013-02-21 12:45:00,48.2,22.3,0.00,SW,225,0.0,0.0,36,0.00,,,0.00,WUHU216HW,2013-02-21 17:45:00,
2013-02-21 12:50:00,48.7,22.7,0.00,North,0,0.0,0.0,36,0.00,,,0.00,WUHU216HW,2013-02-21 17:50:00,
2013-02-21 12:55:00,49.2,22.5,0.00,WSW,248,0.0,0.0,35,0.00,,,0.00,WUHU216HW,2013-02-21 17:55:00,
2013-02-21 13:00:00,49.8,22.3,0.00,SSE,158,0.0,3.3,34,0.00,,,0.00,WUHU216HW,2013-02-21 18:00:00,
2013-02-21 13:05:00,50.5,22.9,0.00,SSE,158,2.6,3.3,34,0.00,,,0.00,WUHU216HW,2013-02-21 18:05:00,
2013-02-21 13:10:00,51.0,22.7,0.00,SE,135,0.0,2.6,33,0.00,,,0.00,WUHU216HW,2013-02-21 18:10:00,
2013-02-21 13:15:00,51.6,23.2,0.00,SE,135,0.0,1.5,33,0.00,,,0.00,WUHU216HW,2013-02-21 18:15:00,
2013-02-21 13:20:00,52.3,23.9,0.00,South,180,0.0,0.0,33,0.00,,,0.00,WUHU216HW,2013-02-21 18:20:00,
2013-02-21 13:25:00,52.8,23.7,0.00,SE,135,0.0,0.0,32,0.00,,,0.00,WUHU216HW,2013-02-21 18:25:00,
2013-02-21 13:30:00,53.4,23.5,0.00,ESE,113,0.0,0.0,31,0.00,,,0.00,WUHU216HW,2013-02-21 18:30:00,
2013-02-21 13:35:00,53.7,23.8,0.00,ESE,113,0.0,0.0,31,0.00,,,0.00,WUHU216HW,2013-02-21 18:35:00,
2013-02-21 13:40:00,53.9,23.9,0.00,SE,135,0.0,0.8,31,0.00,,,0.00,WUHU216HW,2013-02-21 18:40:00,
2013-02-21 13:45:00,54.3,23.5,0.00,SE,135,0.0,0.8,30,0.00,,,0.00,WUHU216HW,2013-02-21 18:45:00,
2013-02-21 13:50:00,54.6,23.8,0.00,SE,135,0.0,2.0,30,0.00,,,0.00,WUHU216HW,2013-02-21 18:50:00,
2013-02-21 13:55:00,55.0,24.2,0.00,SE,135,0.0,2.0,30,0.00,,,0.00,WUHU216HW,2013-02-21 18:55:00,
2013-02-21 14:00:00,55.2,23.3,0.00,SE,135,0.0,2.0,29,0.00,,,0.00,WUHU216HW,2013-02-21 19:00:00,
2013-02-21 14:04:00,55.4,23.5,0.00,SE,135,0.8,2.0,29,0.00,,,0.00,WUHU216HW,2013-02-21 19:04:00,
2013-02-21 14:09:00,55.5,23.6,0.00,SE,135,0.0,1.7,29,0.00,,,0.00,WUHU216HW,2013-02-21 19:09:00,
2013-02-21 14:14:00,55.5,22.7,0.00,SE,135,0.0,0.0,28,0.00,,,0.00,WUHU216HW,2013-02-21 19:14:00,
2013-02-21 14:19:00,55.5,22.7,0.00,WNW,293,0.0,3.1,28,0.00,,,0.00,WUHU216HW,2013-02-21 19:19:00,
2013-02-21 14:24:00,55.5,22.7,0.00,WNW,293,0.0,3.1,28,0.00,,,0.00,WUHU216HW,2013-02-21 19:24:00,
2013-02-21 14:29:00,55.7,22.8,0.00,WNW,293,0.0,2.2,28,0.00,,,0.00,WUHU216HW,2013-02-21 19:29:00,
2013-02-21 14:34:00,55.9,22.1,0.00,SW,225,0.0,5.5,27,0.00,,,0.00,WUHU216HW,2013-02-21 19:34:00,
2013-02-21 14:39:00,56.3,22.4,0.00,SE,135,0.0,5.5,27,0.00,,,0.00,WUHU216HW,2013-02-21 19:39:00,
2013-02-21 14:44:00,56.4,22.5,0.00,SSE,158,2.0,2.4,27,0.00,,,0.00,WUHU216HW,2013-02-21 19:44:00,
2013-02-21 14:49:00,56.3,22.4,0.00,NW,315,0.0,2.0,27,0.00,,,0.00,WUHU216HW,2013-02-21 19:49:00,
2013-02-21 14:54:00,56.4,23.5,0.00,NW,315,0.0,0.0,28,0.00,,,0.00,WUHU216HW,2013-02-21 19:54:00,
2013-02-21 14:59:00,56.3,23.5,0.00,NW,315,0.0,0.0,28,0.00,,,0.00,WUHU216HW,2013-02-21 19:59:00,
2013-02-21 15:04:00,56.4,22.5,0.00,NW,315,0.0,0.0,27,0.00,,,0.00,WUHU216HW,2013-02-21 20:04:00,
2013-02-21 15:09:00,56.8,22.8,0.00,NW,315,1.7,1.7,27,0.00,,,0.00,WUHU216HW,2013-02-21 20:09:00,
2013-02-21 15:14:00,57.0,23.0,0.00,NW,315,0.0,1.7,27,0.00,,,0.00,WUHU216HW,2013-02-21 20:14:00,
2013-02-21 15:19:00,57.0,23.0,0.00,NW,315,0.0,0.0,27,0.00,,,0.00,WUHU216HW,2013-02-21 20:19:00,
2013-02-21 15:24:00,57.0,23.0,0.00,NW,315,0.0,2.9,27,0.00,,,0.00,WUHU216HW,2013-02-21 20:24:00,
2013-02-21 15:29:00,57.0,23.0,0.00,NW,315,0.0,2.9,27,0.00,,,0.00,WUHU216HW,2013-02-21 20:29:00,
2013-02-21 15:34:00,57.3,23.3,0.00,NW,315,0.0,0.0,27,0.00,,,0.00,WUHU216HW,2013-02-21 20:34:00,
2013-02-21 15:39:00,57.3,24.2,0.00,NW,315,0.0,0.0,28,0.00,,,0.00,WUHU216HW,2013-02-21 20:39:00,
2013-02-21 15:44:00,57.3,24.2,0.00,NW,315,0.0,0.0,28,0.00,,,0.00,WUHU216HW,2013-02-21 20:44:00,
2013-02-21 15:49:00,57.3,23.3,0.00,NW,315,1.1,1.1,27,0.00,,,0.00,WUHU216HW,2013-02-21 20:49:00,
2013-02-21 15:54:00,57.0,23.0,0.00,NW,315,0.0,1.1,27,0.00,,,0.00,WUHU216HW,2013-02-21 20:54:00,
2013-02-21 15:59:00,57.0,23.9,0.00,NW,315,0.0,0.0,28,0.00,,,0.00,WUHU216HW,2013-02-21 20:59:00,
2013-02-21 16:04:00,57.0,23.9,0.00,NW,315,0.0,2.9,28,0.00,,,0.00,WUHU216HW,2013-02-21 21:04:00,
2013-02-21 16:09:00,57.3,23.3,0.00,NW,315,0.0,2.9,27,0.00,,,0.00,WUHU216HW,2013-02-21 21:09:00,
2013-02-21 16:14:00,57.3,23.3,0.00,NW,315,0.0,2.4,27,0.00,,,0.00,WUHU216HW,2013-02-21 21:14:00,
2013-02-21 16:19:00,57.3,23.3,0.00,NW,315,0.0,2.4,27,0.00,,,0.00,WUHU216HW,2013-02-21 21:19:00,
2013-02-21 16:24:00,57.3,23.3,0.00,NW,315,0.0,0.0,27,0.00,,,0.00,WUHU216HW,2013-02-21 21:24:00,
2013-02-21 16:29:00,57.3,23.3,0.00,NW,315,1.7,1.7,27,0.00,,,0.00,WUHU216HW,2013-02-21 21:29:00,
2013-02-21 16:34:00,57.5,23.5,0.00,NW,315,0.0,1.7,27,0.00,,,0.00,WUHU216HW,2013-02-21 21:34:00,
2013-02-21 16:39:00,57.5,22.5,0.00,NW,315,0.0,1.5,26,0.00,,,0.00,WUHU216HW,2013-02-21 21:39:00,
2013-02-21 16:44:00,57.5,22.5,0.00,NW,315,0.0,0.0,26,0.00,,,0.00,WUHU216HW,2013-02-21 21:44:00,
2013-02-21 16:49:00,57.5,23.5,0.00,NW,315,0.0,0.0,27,0.00,,,0.00,WUHU216HW,2013-02-21 21:49:00,
2013-02-21 16:54:00,57.3,22.3,0.00,WNW,293,0.0,3.8,26,0.00,,,0.00,WUHU216HW,2013-02-21 21:54:00,
2013-02-21 16:59:00,57.3,22.3,0.00,NW,315,0.0,3.8,26,0.00,,,0.00,WUHU216HW,2013-02-21 21:59:00,
2013-02-21 17:04:00,57.3,22.3,0.00,NW,315,0.0,2.2,26,0.00,,,0.00,WUHU216HW,2013-02-21 22:04:00,
2013-02-21 17:09:00,57.3,22.3,0.00,WNW,293,0.0,2.0,26,0.00,,,0.00,WUHU216HW,2013-02-21 22:09:00,
2013-02-21 17:14:00,57.2,22.2,0.00,WNW,293,0.0,3.1,26,0.00,,,0.00,WUHU216HW,2013-02-21 22:14:00,
2013-02-21 17:19:00,57.0,22.0,0.00,WNW,293,2.9,6.7,26,0.00,,,0.00,WUHU216HW,2013-02-21 22:19:00,
2013-02-21 17:24:00,57.0,22.0,0.00,WNW,293,3.3,6.7,26,0.00,,,0.00,WUHU216HW,2013-02-21 22:24:00,
2013-02-21 17:29:00,57.0,23.0,0.00,NW,315,3.1,3.3,27,0.00,,,0.00,WUHU216HW,2013-02-21 22:29:00,
2013-02-21 17:34:00,57.0,23.0,0.00,NW,315,0.0,4.6,27,0.00,,,0.00,WUHU216HW,2013-02-21 22:34:00,
2013-02-21 17:39:00,56.8,22.8,0.00,WNW,293,1.1,4.6,27,0.00,,,0.00,WUHU216HW,2013-02-21 22:39:00,
2013-02-21 17:44:00,56.8,22.8,0.00,WNW,293,2.2,3.1,27,0.00,,,0.00,WUHU216HW,2013-02-21 22:44:00,
2013-02-21 17:49:00,56.4,22.5,0.00,West,270,1.3,4.0,27,0.00,,,0.00,WUHU216HW,2013-02-21 22:49:00,
2013-02-21 17:54:00,56.3,23.3,0.00,NW,315,2.6,4.0,28,0.00,,,0.00,WUHU216HW,2013-02-21 22:54:00,
2013-02-21 17:59:00,56.1,23.1,0.00,WNW,293,0.0,5.1,28,0.00,,,0.00,WUHU216HW,2013-02-21 22:59:00,
2013-02-21 18:04:00,55.9,23.0,0.00,WNW,293,7.1,7.1,28,0.00,,,0.00,WUHU216HW,2013-02-21 23:04:00,
2013-02-21 18:09:00,55.7,22.8,0.00,West,270,3.3,7.1,28,0.00,,,0.00,WUHU216HW,2013-02-21 23:09:00,
2013-02-21 18:14:00,55.7,23.8,0.00,WNW,293,5.5,7.6,29,0.00,,,0.00,WUHU216HW,2013-02-21 23:14:00,
2013-02-21 18:19:00,55.4,23.5,0.00,NW,315,2.0,7.6,29,0.00,,,0.00,WUHU216HW,2013-02-21 23:19:00,
2013-02-21 18:24:00,55.2,23.3,0.00,West,270,1.1,4.9,29,0.00,,,0.00,WUHU216HW,2013-02-21 23:24:00,
2013-02-21 18:29:00,55.0,23.1,0.00,WSW,248,0.0,4.9,29,0.00,,,0.00,WUHU216HW,2013-02-21 23:29:00,
2013-02-21 18:34:00,54.6,22.9,0.00,WNW,293,0.0,5.5,29,0.00,,,0.00,WUHU216HW,2013-02-21 23:34:00,
2013-02-21 18:39:00,54.5,23.7,0.00,WNW,293,0.6,5.5,30,0.00,,,0.00,WUHU216HW,2013-02-21 23:39:00,
2013-02-21 18:44:00,54.1,23.4,0.00,SW,225,0.0,2.6,30,0.00,,,0.00,WUHU216HW,2013-02-21 23:44:00,
2013-02-21 18:49:00,53.9,23.2,0.00,WNW,293,0.0,3.1,30,0.00,,,0.00,WUHU216HW,2013-02-21 23:49:00,
2013-02-21 18:54:00,53.7,23.1,0.00,West,270,1.1,3.1,30,0.00,,,0.00,WUHU216HW,2013-02-21 23:54:00,
2013-02-21 18:59:00,53.6,23.0,0.00,WNW,293,4.2,4.2,30,0.00,,,0.00,WUHU216HW,2013-02-21 23:59:00,
2013-02-21 19:04:00,53.4,22.8,0.00,West,270,0.0,4.2,30,0.00,,,0.00,WUHU216HW,2013-02-22 00:04:00,
2013-02-21 19:09:00,53.2,22.6,0.00,West,270,0.0,5.8,30,0.00,,,0.00,WUHU216HW,2013-02-22 00:09:00,
2013-02-21 19:14:00,53.0,23.1,0.00,SE,135,0.0,5.8,31,0.00,,,0.00,WUHU216HW,2013-02-22 00:14:00,
2013-02-21 19:19:00,52.8,23.0,0.00,SE,135,0.0,0.0,31,0.00,,,0.00,WUHU216HW,2013-02-22 00:19:00,
2013-02-21 19:24:00,52.5,22.7,0.00,WNW,293,3.5,3.5,31,0.00,,,0.00,WUHU216HW,2013-02-22 00:24:00,
2013-02-21 19:29:00,52.5,22.7,0.00,WNW,293,1.5,4.2,31,0.00,,,0.00,WUHU216HW,2013-02-22 00:29:00,
2013-02-21 19:34:00,52.5,22.7,0.00,West,270,4.9,4.9,31,0.00,,,0.00,WUHU216HW,2013-02-22 00:34:00,
2013-02-21 19:39:00,52.3,22.5,0.00,West,270,2.9,4.9,31,0.00,,,0.00,WUHU216HW,2013-02-22 00:39:00,
2013-02-21 19:44:00,52.3,22.5,0.00,WNW,293,0.0,3.8,31,0.00,,,0.00,WUHU216HW,2013-02-22 00:44:00,
2013-02-21 19:49:00,52.1,22.3,0.00,WNW,293,0.0,2.2,31,0.00,,,0.00,WUHU216HW,2013-02-22 00:49:00,
2013-02-21 19:54:00,51.9,22.2,0.00,WNW,293,2.4,3.3,31,0.00,,,0.00,WUHU216HW,2013-02-22 00:54:00,
2013-02-21 19:59:00,51.8,22.0,0.00,West,270,2.4,3.3,31,0.00,,,0.00,WUHU216HW,2013-02-22 00:59:00,
2013-02-21 20:04:00,51.6,21.9,0.00,West,270,1.5,6.2,31,0.00,,,0.00,WUHU216HW,2013-02-22 01:04:00,
2013-02-21 20:09:00,51.6,21.9,0.00,WSW,248,4.2,6.4,31,0.00,,,0.00,WUHU216HW,2013-02-22 01:09:00,
2013-02-21 20:14:00,51.4,21.7,0.00,NW,315,5.1,6.4,31,0.00,,,0.00,WUHU216HW,2013-02-22 01:14:00,
2013-02-21 20:19:00,51.2,21.5,0.00,WNW,293,1.1,5.1,31,0.00,,,0.00,WUHU216HW,2013-02-22 01:19:00,
2013-02-21 20:24:00,51.0,21.4,0.00,West,270,0.0,7.1,31,0.00,,,0.00,WUHU216HW,2013-02-22 01:24:00,
2013-02-21 20:29:00,50.9,21.9,0.00,WSW,248,0.0,7.1,32,0.00,,,0.00,WUHU216HW,2013-02-22 01:29:00,
2013-02-21 20:34:00,50.7,21.7,0.00,SSW,203,0.0,4.4,32,0.00,,,0.00,WUHU216HW,2013-02-22 01:34:00,
2013-02-21 20:39:00,50.7,21.7,0.00,NW,315,0.0,4.4,32,0.00,,,0.00,WUHU216HW,2013-02-22 01:39:00,
2013-02-21 20:44:00,50.3,22.1,0.00,NE,45,0.0,0.0,33,0.00,,,0.00,WUHU216HW,2013-02-22 01:44:00,
2013-02-21 20:49:00,49.8,23.0,0.00,North,0,0.0,0.0,35,0.00,,,0.00,WUHU216HW,2013-02-22 01:49:00,
2013-02-21 20:54:00,49.6,23.5,0.00,North,0,0.0,0.0,36,0.00,,,0.00,WUHU216HW,2013-02-22 01:54:00,
2013-02-21 20:59:00,48.9,24.2,0.00,NNW,338,0.0,0.0,38,0.00,,,0.00,WUHU216HW,2013-02-22 01:59:00,
2013-02-21 21:04:00,48.0,26.4,0.00,WNW,293,0.0,0.8,43,0.00,,,0.00,WUHU216HW,2013-02-22 02:04:00,
2013-02-21 21:09:00,47.1,26.7,0.00,West,270,1.1,1.1,44,0.02,,,0.02,WUHU216HW,2013-02-22 02:09:00,
2013-02-21 21:14:00,46.2,28.0,0.00,WNW,293,3.1,3.1,49,0.02,,,0.02,WUHU216HW,2013-02-22 02:14:00,
2013-02-21 21:19:00,45.3,29.1,0.00,WNW,293,4.9,7.8,53,0.02,,,0.02,WUHU216HW,2013-02-22 02:19:00,
2013-02-21 21:24:00,44.6,28.9,0.00,West,270,2.2,7.8,54,0.02,,,0.02,WUHU216HW,2013-02-22 02:24:00,
2013-02-21 21:29:00,43.8,29.5,0.00,WNW,293,1.5,4.2,57,0.02,,,0.02,WUHU216HW,2013-02-22 02:29:00,
2013-02-21 21:34:00,43.3,29.3,0.00,West,270,0.0,3.5,58,0.02,,,0.02,WUHU216HW,2013-02-22 02:34:00,
2013-02-21 21:39:00,42.9,29.1,0.00,WNW,293,2.0,3.3,58,0.02,,,0.02,WUHU216HW,2013-02-22 02:39:00,
2013-02-21 21:44:00,42.6,29.2,0.00,West,270,0.0,3.3,59,0.02,,,0.02,WUHU216HW,2013-02-22 02:44:00,
2013-02-21 21:49:00,42.4,28.6,0.00,West,270,0.0,0.0,58,0.02,,,0.02,WUHU216HW,2013-02-22 02:49:00,
2013-02-21 21:54:00,42.4,28.6,0.00,West,270,0.0,0.0,58,0.02,,,0.02,WUHU216HW,2013-02-22 02:54:00,
2013-02-21 21:59:00,42.4,29.0,0.00,WNW,293,0.0,0.0,59,0.02,,,0.02,WUHU216HW,2013-02-22 02:59:00,
2013-02-21 22:04:00,42.4,29.0,0.00,WNW,293,0.0,0.0,59,0.02,,,0.02,WUHU216HW,2013-02-22 03:04:00,
2013-02-21 22:09:00,42.2,28.9,0.00,WNW,293,0.0,0.0,59,0.00,,,0.02,WUHU216HW,2013-02-22 03:09:00,
2013-02-21 22:14:00,42.2,29.3,0.00,WNW,293,0.0,0.0,60,0.00,,,0.02,WUHU216HW,2013-02-22 03:14:00,
2013-02-21 22:19:00,42.4,29.0,0.00,WNW,293,0.0,0.0,59,0.00,,,0.02,WUHU216HW,2013-02-22 03:19:00,
2013-02-21 22:24:00,42.4,29.0,0.00,WNW,293,0.0,0.0,60,0.00,,,0.02,WUHU216HW,2013-02-22 03:24:00,
2013-02-21 22:29:00,42.0,29.9,0.00,WNW,293,0.0,0.0,62,0.00,,,0.02,WUHU216HW,2013-02-22 03:29:00,
2013-02-21 22:34:00,41.7,30.0,0.00,WNW,293,0.0,2.4,63,0.00,,,0.02,WUHU216HW,2013-02-22 03:34:00,
2013-02-21 22:39:00,41.5,30.6,0.00,WNW,293,0.0,2.4,65,0.00,,,0.02,WUHU216HW,2013-02-22 03:39:00,
2013-02-21 22:44:00,41.3,30.8,0.00,WNW,293,0.0,0.0,66,0.00,,,0.02,WUHU216HW,2013-02-22 03:44:00,
2013-02-21 22:49:00,41.1,31.4,0.00,WNW,293,0.0,0.0,68,0.00,,,0.02,WUHU216HW,2013-02-22 03:49:00,
2013-02-21 22:54:00,40.8,31.0,0.00,WNW,293,0.0,0.0,68,0.00,,,0.02,WUHU216HW,2013-02-22 03:54:00,
2013-02-21 22:59:00,40.8,31.0,0.00,WNW,293,0.0,0.0,68,0.00,,,0.02,WUHU216HW,2013-02-22 03:59:00,
2013-02-21 23:04:00,40.6,30.8,0.00,WNW,293,0.0,0.0,68,0.00,,,0.02,WUHU216HW,2013-02-22 04:04:00,
2013-02-21 23:09:00,40.4,31.0,0.00,WNW,293,0.0,0.0,69,0.00,,,0.02,WUHU216HW,2013-02-22 04:09:00,
2013-02-21 23:14:00,40.2,30.9,0.00,WNW,293,0.0,0.0,69,0.00,,,0.02,WUHU216HW,2013-02-22 04:14:00,
2013-02-21 23:19:00,40.2,31.2,0.00,WNW,293,0.0,0.0,70,0.00,,,0.02,WUHU216HW,2013-02-22 04:19:00,
2013-02-21 23:24:00,40.1,31.1,0.00,WNW,293,0.0,0.0,70,0.00,,,0.02,WUHU216HW,2013-02-22 04:24:00,
2013-02-21 23:29:00,40.1,31.4,0.00,West,270,0.0,0.0,70,0.00,,,0.02,WUHU216HW,2013-02-22 04:29:00,
2013-02-21 23:34:00,39.9,31.5,0.00,West,270,0.0,0.0,72,0.00,,,0.02,WUHU216HW,2013-02-22 04:34:00,
2013-02-21 23:39:00,39.7,31.4,0.00,WNW,293,0.0,3.3,72,0.00,,,0.02,WUHU216HW,2013-02-22 04:39:00,
2013-02-21 23:44:00,39.5,31.9,0.00,WNW,293,0.0,5.3,74,0.00,,,0.02,WUHU216HW,2013-02-22 04:44:00,
2013-02-21 23:49:00,39.5,31.9,0.00,WNW,293,0.0,5.3,74,0.00,,,0.02,WUHU216HW,2013-02-22 04:49:00,
2013-02-21 23:54:00,39.3,32.0,0.00,West,270,0.0,2.0,74,0.00,,,0.02,WUHU216HW,2013-02-22 04:54:00,
2013-02-21 23:59:00,39.3,32.0,0.00,West,270,0.0,0.0,75,0.00,,,0.02,WUHU216HW,2013-02-22 04:59:00,